Simultaneous Nadir Overpasses (SNOs) Predictions

Prediction of SNOs between AQUA and METOP-A Satellite Orbit:

Table of predicted SNOs for the next 14.0 days since TLE Epoch: 8/21/2020
Index Date (AQUA) Time (AQUA) Lat,Lon (AQUA) SZA (AQUA ) Date (METOP-A) Time (METOP-A) Lat,Lon (METOP-A) SZA (METOP-A ) Distance(km) Time Diff (sec)
1 08/22/2020 13:46:48 -76.48, 140.61 114.70 08/22/2020 13:46:01 -76.47, 140.50 114.69 3.12 47
2 08/22/2020 14:36:17 76.54, -51.97 65.39 08/22/2020 14:36:39 76.56, -51.85 65.39 3.37 22
3 08/25/2020 09:21:03 -76.51,-153.05 113.71 08/25/2020 09:20:23 -76.51,-153.01 113.70 1.27 40
4 08/25/2020 10:10:31 76.53, 14.51 66.33 08/25/2020 10:11:02 76.55, 14.46 66.34 2.75 31
5 08/28/2020 04:55:18 -76.50, -86.57 112.76 08/28/2020 04:54:47 -76.51, -86.68 112.73 3.34 31
6 08/28/2020 05:44:47 76.57, 80.82 67.34 08/28/2020 05:45:26 76.54, 80.78 67.31 2.97 39
7 08/31/2020 00:29:34 -76.53, -20.25 111.72 08/31/2020 00:29:10 -76.55, -20.19 111.70 2.60 24
8 08/31/2020 01:19:02 76.56, 147.27 68.33 08/31/2020 01:19:49 76.58, 147.25 68.34 1.81 47
9 09/02/2020 20:03:48 -76.53, 46.20 110.72 09/02/2020 20:03:33 -76.54, 46.13 110.69 2.72 15
